SCP
0 0 0 0 0 0 0 0 0 0 0 0 0 0 0 0 0 0 0 0 0 0 0 0 0 0 0 0 0 0 0 0 0 0 0 0 0 0 0 0 0 0 0 0 0 0 0 0 0 0 0 0 0 0
0 0 0 0 0 0 0 0 0 0 0 0 0 0 0 0 0 0 0 0 0 0 0 0 0 0 0 0 0 0 0 0 0 0 0 0 0 0 0 0 0 0 0 0 0 0 0 0 0 0 0 0 0 0
0 0 0 0 0 0 0 0 0 0 0 0 0 0 0 0 0 0 0 0 0 0 0 0 0 0 0 0 0 0 0 0 0 0 0 0 0 0 0 0 0 0 0 0 0 0 0 0 0 0 0 0 0 0
0 0 0 0 0 0 0 0 0 0 0 0 0 0 0 0 0 0 0 0 0 0 0 0 0 0 0 0 0 0 0 0 0 0 0 0 0 0 0 0 0 0 0 0 0 0 0 0 0 0 0 0 0 0
0 0 0 0 0 0 0 0 -0 0 0 0 0 0 0 0 0 0 0 0 0 0 0 0 0 0 0 0 0 0 0 0 0 0 0 0 0 0 0 0 0 0 0 0 0 0 0 0 0 0 0 0 0 0
0 0 0 0 0 0 0 0 0 0 0 0 0 0 0 0 0 0 0 0 0 0 0 0 0 0 0 0 0 0 0 0 0 0 0 0 0 0 0 0 0 0 0 0 0 0 0 0 0 0 0 0 0 0
0 0 0 0 0 0 0 0 0 0 0 0 0 0 0 0 0 0 0 0 0 0 0 0 0 0 0 0 0 0 0 0 0 0 0 0 0 0 0 0 0 0 0 0 0 0 0 0 0 0 0 0 0 0
0 0 0 0 0 0 0 0 0 0 0 0 0 0 0 0 0 0 0 0 0 0 0 0 0 0 0 0 0 0 0 0 0 0 0 0 0 0 0 0 0 0 0 0 0 0 0 0 0 0 0 0 0 0
-0 0 0 0 0 0 0 0 0 0 0 0 0 0 0 0 0 0 0 0 0 0 0 0 0 0 0 0 0 0 0 0 0 0 0 0 0 0 0 0 0 0 0 0 0 0 0 0 0 0 0 0 0 0
0 0 0 0 0 0 0 0 0 0 0 0 0 0 0 0 0 0 0 0 0 0 0 0 0 0 0 0 0 0 0 0 0 0 0 0 0 0 0 0 0 0 0 0 0 0 0 0 0 0 0 0 0 0
-0 0 0 0 0 0 0 0 0 0 0 0 0 0 0 0 0 0 0 0 0 0 0 0 0 0 0 0 0 0 0 0 0 0 0 0 0 0 0 0 -0 0 0 0 0 0 0 0 0 0 0 0 0 0
-0 0 0 0 0 0 0 0 0 0 0 0 0 0 0 0 0 0 0 0 0 0 0 0 0 0 0 0 0 0 0 0 0 0 0 0 0 0 0 0 0 0 0 0 0 0 0 0 0 0 0 0 0 0
-0 0 0 0 0 0 0 0 0 0 0 0 0 0 0 0 0 0 0 0 0 0 0 0 0 0 0 0 0 0 0 0 0 0 0 0 0 0 0 0 0 0 0 0 0 0 0 0 0 0 0 0 0 0
-0 0 0 0 0 0 0 0 0 0 0 0 0 0 0 0 0 0 0 0 0 0 0 0 0 0 0 0 0 0 0 0 0 0 0 0 0 0 0 0 -0 0 0 0 0 0 0 0 0 0 0 0 0 0
-0 0 0 0 0 0 0 0 0 0 0 0 0 0 0 0 0 0 -0 0 0 0 0 0 0 0 0 0 0 0 0 0 0 0 0 0 0 0 0 0 0 0 0 0 0 0 0 0 0 0 0 0 0 0
0 0 0 0 0 0 0 0 0 0 0 0 0 0 0 0 0 0 0 0 0 0 0 0 0 0 0 0 0 0 0 0 0 0 0 0 0 0 0 0 0 0 0 0 0 0 0 0 0 0 0 0 0 0
0 0 0 0 0 0 0 0 0 0 0 0 0 0 0 0 0 0 0 0 0 0 0 0 0 0 0 0 0 0 0 0 0 0 0 0 0 0 0 -0 -0 0 0 0 0 0 0 0 0 0 0 0 0 0
0 0 0 0 0 0 0 0 0 0 0 0 0 0 0 0 0 0 0 0 0 0 0 0 0 0 0 0 0 0 0 0 -0 -0 -0 -0 -0 -0 -0 -0 -0 0 0 0 0 0 0 0 0 0 -0 0 0 0
0 0 0 0 0 0 0 0 0 0 0 0 0 0 0 0 0 0 0 0 0 0 0 0 0 0 0 0 0 -0 -0 -0 -0 -0 -0 -0 -0 0 0 0 0 0 0 0 0 0 0 0 0 0 0 0 0 0
0 0 0 0 0 0 0 0 0 0 0 0 0 0 0 0 0 0 -0 0 0 0 0 0 0 0 0 0 -0 -0 -0 -0 -0 -0 -0 0 0 0 0 0 0 0 0 0 0 0 0 0 0 0 0 0 -0 0
0 0 0 0 0 0 0 0 0 0 0 0 0 0 0 0 0 0 -0 0 0 0 0 -0 -0 -0 -0 -0 -0 -0 0 -0 0 -0 -0 0 0 0 0 0 0 0 0 0 0 0 0 0 0 0 0 0 0 0
0 0 0 0 0 0 0 0 0 0 0 0 0 0 0 0 0 0 0 0 0 -0 -0 0 0 0 0 -0 0 0 -0 -0 -0 -0 -0 -0 0 0 0 0 0 0 0 0 0 0 0 0 0 0 0 0 0 0
0 0 0 0 0 0 0 0 0 0 0 0 0 0 0 0 0 0 -0 -0 -0 -0 -0 -0 0 0 -0 -0 -0 -0 -0 -0 -0 -0 0 0 -0 0 0 0 0 0 0 0 0 0 0 0 0 0 0 0 0 0
0 0 0 0 0 0 0 0 0 0 0 0 0 0 0 0 0 0 0 -0 -0 -0 -0 0 -0 0 0 -0 0 0 0 0 -0 0 0 0 0 0 0 0 0 0 0 0 0 0 0 0 0 0 0 0 0 0
-0 0 -0 0 0 0 0 0 0 0 0 0 0 0 0 0 0 0 0 0 -0 0 0 0 0 0 0 0 0 0 0 0 0 0 0 0 0 0 0 0 0 0 0 0 0 0 0 0 0 0 0 0 0 0
0 0 0 0 0 0 0 0 0 0 0 0 0 0 0 0 0 0 0 0 0 0 0 0 0 -0 0 0 0 0 0 0 0 0 0 0 0 0 0 0 0 -0 -0 0 0 0 0 0 0 0 0 0 0 -0
0 0 0 0 0 0 0 0 0 0 0 0 0 0 0 0 0 0 0 0 0 0 0 0 0 0 0 0 0 0 0 0 0 0 0 0 0 0 0 0 0 0 0 0 0 0 0 0 0 0 0 0 0 -0
0 0 0 0 0 0 0 0 0 0 0 0 0 0 0 0 0 0 0 0 0 0 0 0 0 0 0 0 0 0 0 0 0 0 0 0 0 0 0 0 0 0 0 0 0 0 0 -0 -0 0 0 0 -0 -0
0 0 0 0 0 0 0 0 0 0 0 0 0 0 0 -0 0 0 0 0 0 0 0 0 0 0 0 0 0 0 0 0 0 0 0 0 0 0 0 0 0 0 0 -0 -0 -0 -0 0 0 -0 -0 0 0 0
0 0 0 0 0 0 0 0 0 -0 0 0 0 0 0 -0 0 0 0 0 0 0 0 0 0 0 0 0 0 0 0 0 0 0 0 0 0 0 0 0 0 0 0 0 0 0 0 -0 -0 -0 0 0 0 0
0 0 0 0 0 0 0 0 0 -0 -0 0 0 -0 -0 -0 0 0 0 0 0 0 0 0 0 0 0 0 0 0 0 0 0 0 0 0 0 0 0 0 0 0 0 0 0 0 0 0 0 0 0 0 0 0
0 0 0 0 0 0 0 0 0 0 0 -0 -0 0 0 0 0 0 0 0 0 0 0 0 0 0 0 0 0 0 0 0 0 0 -0 0 0 0 0 0 -0 0 0 -0 -0 0 0 0 0 0 0 0 0 0
0 0 0 0 0 0 0 0 0 0 0 0 0 -0 0 0 0 0 0 0 0 0 0 0 0 0 0 0 0 0 0 0 0 0 0 0 0 -0 -0 -0 -0 -0 -0 0 0 0 0 0 0 0 0 0 0 0
Wind_Speed_500mb
22 22 15 20 23 20 19 19 21 21 16 14 13 13 13 13 12 12 23 16 8 10 32 16 11 20 15 9 3 14 4 13 8 7 6 6 5 8 6 8 9 12 11 7 6 8 14 13 4 10 16 9 2 4
18 14 15 13 13 15 20 21 22 16 11 13 13 13 10 11 10 9 16 12 15 19 14 19 23 11 10 13 8 11 7 4 5 4 4 2 2 3 6 8 9 7 12 11 14 11 11 12 24 32 30 20 9 13
12 18 17 14 13 14 16 15 14 10 10 10 11 10 10 8 9 10 6 10 4 12 25 27 28 10 9 13 15 2 5 5 7 7 4 2 2 3 4 2 5 13 22 3 7 7 7 33 36 33 22 19 23 18
9 8 11 12 12 10 14 13 15 13 10 6 6 7 9 6 8 10 6 7 3 7 5 4 13 15 11 5 10 5 13 9 10 6 7 4 2 3 3 5 4 6 10 6 4 6 24 33 42 36 31 31 37 38
11 11 12 13 13 10 11 11 12 15 10 7 4 3 5 5 11 17 3 10 4 2 5 12 5 15 9 5 8 7 8 10 2 5 5 3 4 5 6 4 4 8 7 6 8 4 6 15 40 30 31 43 46 47
12 10 10 11 12 8 9 8 12 18 7 8 4 4 5 2 9 17 7 9 8 4 4 5 3 21 18 11 8 13 8 8 8 8 6 5 3 2 2 4 4 9 10 12 10 13 15 15 29 35 33 35 40 44
15 14 11 10 10 8 8 10 16 13 10 9 5 5 6 2 10 14 7 2 8 11 1 8 9 15 22 17 13 11 14 7 5 5 6 5 4 6 4 6 15 11 9 13 14 18 14 22 5 16 24 35 41 42
15 15 12 11 8 7 6 8 12 14 10 6 5 4 4 2 8 7 5 2 4 7 3 1 7 5 22 11 8 16 12 10 10 4 3 9 5 9 8 19 43 38 21 18 4 16 20 32 38 21 23 42 45 50
15 15 13 12 8 5 3 5 8 8 7 6 5 6 1 5 2 2 5 3 9 2 1 2 2 5 18 11 12 14 13 3 7 6 7 7 4 7 14 30 41 38 23 19 19 15 30 41 25 23 32 40 49 56
18 16 15 13 13 7 4 3 5 4 3 2 1 0 3 3 6 5 3 4 4 5 5 5 7 4 7 10 8 5 6 5 3 10 10 5 7 33 41 36 25 17 4 11 7 41 42 30 34 42 49 48 52 52
24 18 18 16 13 9 7 2 2 5 7 4 3 2 2 2 1 2 3 6 7 4 11 11 10 3 14 6 3 6 5 1 4 3 7 4 6 8 25 47 54 49 41 29 20 15 31 39 38 41 56 62 67 61
22 20 20 19 14 10 8 4 5 7 8 7 9 4 3 1 1 1 4 5 5 6 12 10 7 6 7 7 6 9 4 5 5 6 3 4 6 24 35 37 9 25 41 32 26 19 25 37 47 45 50 61 63 47
21 18 20 21 17 12 9 7 6 7 5 4 5 5 3 3 7 4 5 4 3 7 3 15 8 6 4 11 5 4 4 7 4 3 5 6 28 45 47 43 39 35 6 15 15 8 9 39 38 34 56 65 56 48
21 22 19 21 19 15 10 9 5 5 3 1 3 7 4 3 6 5 3 4 6 6 17 27 11 6 5 6 3 3 6 4 2 2 4 6 34 38 37 37 39 43 40 16 19 18 17 23 34 54 71 71 51 59
22 21 21 21 21 18 13 10 7 7 1 2 3 4 6 10 17 17 11 3 11 4 8 13 11 6 4 4 2 4 5 7 6 4 3 19 26 31 35 36 37 38 34 30 12 27 27 24 41 61 62 63 56 60
23 22 25 22 21 19 14 8 10 5 2 3 5 6 12 11 15 22 3 14 13 13 17 11 6 7 3 3 2 8 4 5 5 4 12 21 27 28 30 34 35 33 31 24 15 17 29 38 50 65 59 66 59 48
21 13 21 25 25 21 16 12 7 2 4 5 7 17 18 19 6 2 3 7 14 7 4 7 6 9 1 2 5 7 7 6 4 8 16 25 41 40 41 41 38 35 36 25 16 5 31 41 48 45 49 61 45 50
20 19 26 28 30 27 20 8 3 3 7 10 10 18 9 16 15 9 7 5 6 5 10 5 5 4 7 6 6 2 8 24 35 42 50 58 62 44 37 39 37 35 34 24 13 4 24 49 56 55 56 45 40 39
23 28 27 28 30 14 8 8 4 5 12 13 16 20 14 20 15 8 5 9 8 5 8 3 3 4 6 5 9 34 46 50 57 67 74 69 54 40 32 27 23 20 23 21 18 21 16 45 46 55 46 50 49 63
27 27 27 27 27 3 4 5 8 7 8 7 14 13 12 18 21 14 13 15 10 3 4 2 7 8 15 39 49 62 68 66 60 58 56 54 42 35 33 31 30 24 20 22 14 27 38 37 61 52 66 62 66 60
26 26 21 22 8 6 5 3 8 7 9 6 7 11 12 18 20 16 18 19 7 3 3 10 19 38 44 53 56 58 65 64 66 62 61 57 46 37 38 39 38 27 27 19 23 36 49 60 69 69 75 70 69 56
23 26 21 5 2 6 5 3 8 9 5 5 10 7 10 6 5 5 6 7 6 6 11 29 38 46 65 65 58 53 58 58 61 65 61 56 52 49 48 41 28 30 27 31 51 66 68 71 80 77 75 68 54 45
20 7 2 2 4 4 4 9 5 6 1 9 8 6 7 10 12 11 7 8 6 24 35 40 43 54 62 51 49 65 53 49 55 57 55 50 45 40 36 31 29 30 57 68 72 73 70 70 74 72 68 61 54 50
10 4 0 4 4 6 7 5 5 6 7 4 3 4 5 5 7 9 5 6 24 34 40 45 56 69 63 58 63 40 18 34 24 19 29 38 38 34 31 31 57 65 69 74 79 74 76 76 75 75 66 60 52 49
2 2 1 5 3 4 4 4 6 2 3 1 7 7 7 5 5 4 2 19 36 41 48 62 72 69 64 55 29 49 41 41 44 49 48 67 69 63 61 58 64 68 83 91 84 78 83 78 69 69 65 57 51 43
2 3 6 3 3 3 4 2 2 3 4 7 3 3 2 6 5 5 6 23 33 41 53 60 57 60 55 57 39 48 63 63 68 74 72 74 77 83 77 69 65 64 78 84 78 77 78 76 70 65 55 43 39 35
4 6 6 7 3 4 5 5 5 4 3 1 6 7 5 6 4 6 15 21 37 36 45 53 58 35 48 53 53 71 84 78 81 80 76 76 78 78 78 79 73 72 72 65 69 67 70 72 64 56 53 45 36 31
4 7 7 13 5 4 7 3 3 5 4 9 7 9 5 6 3 10 13 21 23 29 46 44 52 64 59 75 69 75 76 66 70 80 84 72 63 64 63 65 68 62 53 64 70 70 70 60 53 50 48 42 38 35
3 7 11 8 7 8 4 6 7 9 11 8 6 4 6 5 9 16 17 15 20 28 45 53 64 70 68 55 43 46 58 68 71 76 78 74 65 54 62 58 47 40 41 45 47 40 41 49 52 50 44 38 36 33
8 16 9 5 6 6 10 8 16 20 11 10 17 22 21 15 18 13 14 15 20 28 40 46 58 73 80 76 75 76 78 79 76 75 73 72 69 64 61 56 48 51 56 43 42 50 45 43 41 43 39 34 33 28
19 15 9 10 9 15 21 21 20 24 37 41 32 30 19 13 20 20 16 15 17 22 25 36 43 47 55 60 62 64 68 64 58 56 54 53 48 45 42 40 38 32 33 38 41 40 36 31 32 31 33 30 28 23
15 13 14 6 7 14 15 13 12 23 22 21 13 12 8 8 8 9 11 12 12 14 23 28 32 34 33 36 37 41 43 46 48 45 41 39 38 35 33 33 31 31 25 21 20 23 28 33 31 28 28 26 22 23
30 27 25 18 10 9 11 7 6 7 6 6 8 12 11 6 6 10 8 12 16 18 16 16 17 13 18 20 20 19 20 22 24 25 25 23 19 18 18 18 22 25 27 25 23 21 22 22 22 21 22 20 18 19
Wind_Direction_500mb
294 300 307 290 272 266 266 262 265 252 261 288 301 291 284 274 268 242 179 185 226 261 266 280 339 344 2 10 14 331 91 20 43 79 127 217 168 236 172 208 184 192 164 179 140 182 267 185 70 172 166 164 105 190
282 292 309 299 331 283 273 271 282 205 244 288 297 294 292 274 258 222 197 190 234 245 273 258 256 272 276 298 336 18 97 85 64 104 52 119 286 7 164 241 339 224 186 188 172 212 191 151 134 140 154 147 160 171
304 283 290 299 289 289 270 267 270 211 235 260 293 295 276 265 236 184 132 81 205 278 289 259 258 251 219 263 278 138 84 91 87 62 145 204 67 70 59 284 299 339 19 123 102 360 146 126 140 142 149 147 158 159
311 303 279 302 287 295 300 270 273 220 223 237 269 289 287 249 203 177 113 40 72 272 274 266 109 143 203 286 292 195 161 114 91 53 53 92 157 30 217 191 169 229 352 358 345 58 85 145 145 144 144 145 159 163
287 287 293 296 308 278 282 274 280 213 212 219 241 308 299 265 198 197 70 108 328 248 247 291 314 172 201 300 161 163 191 209 191 83 63 247 289 38 333 95 268 170 177 158 227 222 150 163 160 159 158 162 165 163
284 290 288 298 306 291 305 297 212 208 212 227 237 309 318 263 181 170 183 194 211 34 296 337 273 189 183 180 176 178 168 154 172 164 185 232 21 148 98 256 315 99 4 252 202 169 124 125 200 179 167 165 173 177
270 262 267 273 296 291 274 293 212 189 214 219 237 287 316 176 178 190 187 186 224 246 259 317 301 205 212 176 185 185 194 183 151 184 210 213 235 21 144 195 208 84 17 327 318 194 155 176 217 163 189 184 181 181
261 257 253 252 266 292 289 284 189 182 202 219 237 280 285 220 159 164 162 321 178 166 200 219 273 148 176 177 200 196 178 187 198 220 231 189 217 195 235 218 241 262 265 246 315 223 182 192 196 181 186 177 176 182
255 244 242 238 254 267 319 258 161 191 225 256 285 306 182 139 139 185 339 166 171 124 305 286 180 217 177 211 193 181 183 115 199 177 232 147 254 227 226 223 215 227 225 228 201 139 247 199 179 172 174 173 170 168
243 236 229 215 243 247 224 239 243 268 303 281 253 234 144 167 301 272 137 154 195 193 231 246 275 272 201 203 179 149 168 195 162 236 160 135 252 237 247 245 249 265 339 353 201 180 196 199 177 176 180 181 176 165
232 236 222 216 223 224 211 200 78 101 106 74 355 187 92 344 199 210 227 191 193 234 209 225 237 251 25 95 172 205 184 40 57 315 140 229 271 278 260 245 253 260 268 271 286 310 209 218 198 181 179 175 167 167
224 221 214 208 208 211 202 190 126 139 79 34 42 22 50 304 293 84 257 275 195 239 182 184 210 122 64 34 64 13 114 42 233 324 141 265 273 47 35 42 358 249 250 265 272 300 214 213 209 189 182 184 174 175
212 210 206 202 204 204 192 183 189 176 79 168 314 314 264 235 32 222 204 236 246 333 4 139 72 75 89 36 44 42 88 233 326 42 220 13 355 38 37 32 40 51 111 234 230 227 214 195 195 196 178 179 173 177
206 203 198 194 193 185 173 182 179 152 138 335 312 320 168 246 251 220 259 214 8 78 103 105 85 88 66 50 19 82 257 93 10 244 97 304 9 18 20 24 28 27 34 155 200 193 202 205 202 184 180 179 175 175
190 190 188 186 184 179 169 170 165 158 59 316 309 265 229 260 310 285 3 43 135 188 150 99 64 90 43 56 330 14 314 232 212 160 147 350 2 2 1 358 0 14 15 22 209 209 202 204 192 180 183 184 179 171
175 177 186 178 175 174 181 183 170 148 303 273 251 284 321 45 39 22 134 195 181 108 99 69 80 49 336 177 131 221 241 239 167 199 328 354 356 351 345 337 334 344 349 352 13 223 222 192 185 175 159 158 154 166
159 160 175 173 168 167 157 144 139 204 297 275 264 299 270 269 272 304 300 47 154 132 130 111 89 208 245 353 243 206 215 192 271 309 310 313 324 311 305 304 308 312 321 328 334 13 196 188 181 160 151 150 161 167
156 147 152 164 165 163 157 152 168 253 262 259 266 287 314 327 316 320 292 150 139 142 156 191 147 110 194 220 254 291 340 312 306 305 306 308 308 301 300 302 294 286 294 296 325 198 193 183 173 163 164 179 193 176
131 141 146 157 158 136 161 192 213 266 257 265 282 279 308 294 290 265 143 147 132 142 135 94 76 214 241 251 291 313 306 302 299 297 298 297 294 289 296 302 290 271 283 282 291 227 208 197 202 186 176 180 178 168
128 130 144 154 162 158 195 197 211 264 285 312 293 301 301 269 287 232 229 199 195 123 79 95 225 268 293 291 288 286 284 285 280 279 278 281 280 290 295 282 274 266 269 260 231 218 212 194 203 186 176 180 172 169
126 138 146 163 188 309 275 214 226 254 283 283 307 321 287 274 240 205 198 197 163 74 258 255 277 293 301 303 294 288 284 279 266 260 263 268 274 275 278 273 264 249 242 228 175 181 202 203 190 178 176 178 175 175
136 136 136 128 338 301 277 269 277 303 283 292 299 250 310 19 65 96 124 78 78 43 331 318 317 316 319 312 304 291 294 292 275 263 258 259 261 261 260 257 232 209 224 202 173 160 164 161 165 169 167 166 168 163
134 127 57 220 255 272 306 310 328 314 252 315 331 46 360 6 10 22 64 56 70 348 341 330 326 325 327 323 304 305 306 291 272 255 244 239 241 242 224 206 195 183 157 160 167 161 152 163 161 159 155 153 154 153
131 113 47 358 306 276 317 298 311 318 326 331 54 27 352 296 45 43 43 49 354 341 345 351 345 341 342 341 339 359 31 74 97 131 159 180 189 184 175 154 143 156 161 158 147 149 152 153 153 150 147 148 151 154
183 63 9 324 253 296 284 321 322 22 346 102 166 204 224 163 65 35 15 360 352 342 349 356 349 344 327 337 49 69 88 92 101 112 120 126 125 124 129 124 120 123 141 138 146 151 147 148 145 148 150 150 152 156
186 191 152 269 283 138 298 316 269 292 0 2 313 359 226 104 63 20 12 356 343 335 353 351 343 344 8 22 92 80 79 88 87 82 97 116 118 117 116 120 123 128 136 142 145 150 149 148 151 150 148 147 144 142
222 159 188 198 297 326 327 286 296 77 38 340 306 342 25 73 53 21 347 336 339 357 360 1 359 359 10 47 101 91 85 88 83 88 102 108 108 116 121 122 125 133 138 142 140 141 144 146 148 147 144 143 137 132
242 146 155 169 188 216 289 268 39 30 5 353 8 36 62 27 19 320 313 353 12 13 13 35 39 55 83 80 94 88 86 88 96 98 94 97 103 102 106 114 124 132 136 137 137 139 142 147 154 161 154 148 131 125
202 169 137 171 194 204 26 50 28 28 3 17 68 79 91 81 20 5 22 43 40 20 27 45 64 76 82 104 91 75 76 85 90 92 89 84 83 98 101 111 124 135 135 147 153 152 161 164 163 164 162 154 146 135
162 155 159 155 67 50 32 86 81 51 62 117 113 114 97 87 54 47 69 73 58 44 47 48 59 75 85 87 84 83 84 87 89 91 91 86 88 98 103 108 111 107 116 122 142 152 155 153 164 168 164 161 156 151
135 107 78 88 83 104 105 107 96 81 77 79 86 97 117 118 57 66 78 76 65 84 76 68 71 66 72 80 81 85 82 85 91 96 98 95 94 95 99 98 96 101 113 120 122 136 149 152 158 168 172 164 161 163
98 108 117 98 110 134 132 117 101 100 93 87 91 93 74 92 75 53 97 104 99 105 83 82 76 63 59 64 77 80 83 89 95 95 89 88 88 92 98 102 109 111 114 124 126 114 125 149 161 161 165 166 166 169
121 118 115 113 138 168 171 143 114 123 98 68 75 83 79 87 84 27 47 149 143 110 109 92 81 76 69 65 68 77 87 91 93 96 96 95 86 81 86 105 104 113 111 105 100 108 119 126 135 147 158 159 160 174
Wind_Speed_850mb
22 22 15 20 23 20 19 19 21 21 16 14 13 13 13 13 12 12 23 16 8 10 32 16 11 20 15 9 3 14 4 13 8 7 6 6 5 8 6 8 9 12 11 7 6 8 14 13 4 10 16 9 2 4
18 14 15 13 13 15 20 21 22 16 11 13 13 13 10 11 10 9 16 12 15 19 14 19 23 11 10 13 8 11 7 4 5 4 4 2 2 3 6 8 9 7 12 11 14 11 11 12 24 32 30 20 9 13
12 18 17 14 13 14 16 15 14 10 10 10 11 10 10 8 9 10 6 10 4 12 25 27 28 10 9 13 15 2 5 5 7 7 4 2 2 3 4 2 5 13 22 3 7 7 7 33 36 33 22 19 23 18
9 8 11 12 12 10 14 13 15 13 10 6 6 7 9 6 8 10 6 7 3 7 5 4 13 15 11 5 10 5 13 9 10 6 7 4 2 3 3 5 4 6 10 6 4 6 24 33 42 36 31 31 37 38
11 11 12 13 13 10 11 11 12 15 10 7 4 3 5 5 11 17 3 10 4 2 5 12 5 15 9 5 8 7 8 10 2 5 5 3 4 5 6 4 4 8 7 6 8 4 6 15 40 30 31 43 46 47
12 10 10 11 12 8 9 8 12 18 7 8 4 4 5 2 9 17 7 9 8 4 4 5 3 21 18 11 8 13 8 8 8 8 6 5 3 2 2 4 4 9 10 12 10 13 15 15 29 35 33 35 40 44
15 14 11 10 10 8 8 10 16 13 10 9 5 5 6 2 10 14 7 2 8 11 1 8 9 15 22 17 13 11 14 7 5 5 6 5 4 6 4 6 15 11 9 13 14 18 14 22 5 16 24 35 41 42
15 15 12 11 8 7 6 8 12 14 10 6 5 4 4 2 8 7 5 2 4 7 3 1 7 5 22 11 8 16 12 10 10 4 3 9 5 9 8 19 43 38 21 18 4 16 20 32 38 21 23 42 45 50
15 15 13 12 8 5 3 5 8 8 7 6 5 6 1 5 2 2 5 3 9 2 1 2 2 5 18 11 12 14 13 3 7 6 7 7 4 7 14 30 41 38 23 19 19 15 30 41 25 23 32 40 49 56
18 16 15 13 13 7 4 3 5 4 3 2 1 0 3 3 6 5 3 4 4 5 5 5 7 4 7 10 8 5 6 5 3 10 10 5 7 33 41 36 25 17 4 11 7 41 42 30 34 42 49 48 52 52
24 18 18 16 13 9 7 2 2 5 7 4 3 2 2 2 1 2 3 6 7 4 11 11 10 3 14 6 3 6 5 1 4 3 7 4 6 8 25 47 54 49 41 29 20 15 31 39 38 41 56 62 67 61
22 20 20 19 14 10 8 4 5 7 8 7 9 4 3 1 1 1 4 5 5 6 12 10 7 6 7 7 6 9 4 5 5 6 3 4 6 24 35 37 9 25 41 32 26 19 25 37 47 45 50 61 63 47
21 18 20 21 17 12 9 7 6 7 5 4 5 5 3 3 7 4 5 4 3 7 3 15 8 6 4 11 5 4 4 7 4 3 5 6 28 45 47 43 39 35 6 15 15 8 9 39 38 34 56 65 56 48
21 22 19 21 19 15 10 9 5 5 3 1 3 7 4 3 6 5 3 4 6 6 17 27 11 6 5 6 3 3 6 4 2 2 4 6 34 38 37 37 39 43 40 16 19 18 17 23 34 54 71 71 51 59
22 21 21 21 21 18 13 10 7 7 1 2 3 4 6 10 17 17 11 3 11 4 8 13 11 6 4 4 2 4 5 7 6 4 3 19 26 31 35 36 37 38 34 30 12 27 27 24 41 61 62 63 56 60
23 22 25 22 21 19 14 8 10 5 2 3 5 6 12 11 15 22 3 14 13 13 17 11 6 7 3 3 2 8 4 5 5 4 12 21 27 28 30 34 35 33 31 24 15 17 29 38 50 65 59 66 59 48
21 13 21 25 25 21 16 12 7 2 4 5 7 17 18 19 6 2 3 7 14 7 4 7 6 9 1 2 5 7 7 6 4 8 16 25 41 40 41 41 38 35 36 25 16 5 31 41 48 45 49 61 45 50
20 19 26 28 30 27 20 8 3 3 7 10 10 18 9 16 15 9 7 5 6 5 10 5 5 4 7 6 6 2 8 24 35 42 50 58 62 44 37 39 37 35 34 24 13 4 24 49 56 55 56 45 40 39
23 28 27 28 30 14 8 8 4 5 12 13 16 20 14 20 15 8 5 9 8 5 8 3 3 4 6 5 9 34 46 50 57 67 74 69 54 40 32 27 23 20 23 21 18 21 16 45 46 55 46 50 49 63
27 27 27 27 27 3 4 5 8 7 8 7 14 13 12 18 21 14 13 15 10 3 4 2 7 8 15 39 49 62 68 66 60 58 56 54 42 35 33 31 30 24 20 22 14 27 38 37 61 52 66 62 66 60
26 26 21 22 8 6 5 3 8 7 9 6 7 11 12 18 20 16 18 19 7 3 3 10 19 38 44 53 56 58 65 64 66 62 61 57 46 37 38 39 38 27 27 19 23 36 49 60 69 69 75 70 69 56
23 26 21 5 2 6 5 3 8 9 5 5 10 7 10 6 5 5 6 7 6 6 11 29 38 46 65 65 58 53 58 58 61 65 61 56 52 49 48 41 28 30 27 31 51 66 68 71 80 77 75 68 54 45
20 7 2 2 4 4 4 9 5 6 1 9 8 6 7 10 12 11 7 8 6 24 35 40 43 54 62 51 49 65 53 49 55 57 55 50 45 40 36 31 29 30 57 68 72 73 70 70 74 72 68 61 54 50
10 4 0 4 4 6 7 5 5 6 7 4 3 4 5 5 7 9 5 6 24 34 40 45 56 69 63 58 63 40 18 34 24 19 29 38 38 34 31 31 57 65 69 74 79 74 76 76 75 75 66 60 52 49
2 2 1 5 3 4 4 4 6 2 3 1 7 7 7 5 5 4 2 19 36 41 48 62 72 69 64 55 29 49 41 41 44 49 48 67 69 63 61 58 64 68 83 91 84 78 83 78 69 69 65 57 51 43
2 3 6 3 3 3 4 2 2 3 4 7 3 3 2 6 5 5 6 23 33 41 53 60 57 60 55 57 39 48 63 63 68 74 72 74 77 83 77 69 65 64 78 84 78 77 78 76 70 65 55 43 39 35
4 6 6 7 3 4 5 5 5 4 3 1 6 7 5 6 4 6 15 21 37 36 45 53 58 35 48 53 53 71 84 78 81 80 76 76 78 78 78 79 73 72 72 65 69 67 70 72 64 56 53 45 36 31
4 7 7 13 5 4 7 3 3 5 4 9 7 9 5 6 3 10 13 21 23 29 46 44 52 64 59 75 69 75 76 66 70 80 84 72 63 64 63 65 68 62 53 64 70 70 70 60 53 50 48 42 38 35
3 7 11 8 7 8 4 6 7 9 11 8 6 4 6 5 9 16 17 15 20 28 45 53 64 70 68 55 43 46 58 68 71 76 78 74 65 54 62 58 47 40 41 45 47 40 41 49 52 50 44 38 36 33
8 16 9 5 6 6 10 8 16 20 11 10 17 22 21 15 18 13 14 15 20 28 40 46 58 73 80 76 75 76 78 79 76 75 73 72 69 64 61 56 48 51 56 43 42 50 45 43 41 43 39 34 33 28
19 15 9 10 9 15 21 21 20 24 37 41 32 30 19 13 20 20 16 15 17 22 25 36 43 47 55 60 62 64 68 64 58 56 54 53 48 45 42 40 38 32 33 38 41 40 36 31 32 31 33 30 28 23
15 13 14 6 7 14 15 13 12 23 22 21 13 12 8 8 8 9 11 12 12 14 23 28 32 34 33 36 37 41 43 46 48 45 41 39 38 35 33 33 31 31 25 21 20 23 28 33 31 28 28 26 22 23
30 27 25 18 10 9 11 7 6 7 6 6 8 12 11 6 6 10 8 12 16 18 16 16 17 13 18 20 20 19 20 22 24 25 25 23 19 18 18 18 22 25 27 25 23 21 22 22 22 21 22 20 18 19
Wind_Direction_850mb
294 300 307 290 272 266 266 262 265 252 261 288 301 291 284 274 268 242 179 185 226 261 266 280 339 344 2 10 14 331 91 20 43 79 127 217 168 236 172 208 184 192 164 179 140 182 267 185 70 172 166 164 105 190
282 292 309 299 331 283 273 271 282 205 244 288 297 294 292 274 258 222 197 190 234 245 273 258 256 272 276 298 336 18 97 85 64 104 52 119 286 7 164 241 339 224 186 188 172 212 191 151 134 140 154 147 160 171
304 283 290 299 289 289 270 267 270 211 235 260 293 295 276 265 236 184 132 81 205 278 289 259 258 251 219 263 278 138 84 91 87 62 145 204 67 70 59 284 299 339 19 123 102 360 146 126 140 142 149 147 158 159
311 303 279 302 287 295 300 270 273 220 223 237 269 289 287 249 203 177 113 40 72 272 274 266 109 143 203 286 292 195 161 114 91 53 53 92 157 30 217 191 169 229 352 358 345 58 85 145 145 144 144 145 159 163
287 287 293 296 308 278 282 274 280 213 212 219 241 308 299 265 198 197 70 108 328 248 247 291 314 172 201 300 161 163 191 209 191 83 63 247 289 38 333 95 268 170 177 158 227 222 150 163 160 159 158 162 165 163
284 290 288 298 306 291 305 297 212 208 212 227 237 309 318 263 181 170 183 194 211 34 296 337 273 189 183 180 176 178 168 154 172 164 185 232 21 148 98 256 315 99 4 252 202 169 124 125 200 179 167 165 173 177
270 262 267 273 296 291 274 293 212 189 214 219 237 287 316 176 178 190 187 186 224 246 259 317 301 205 212 176 185 185 194 183 151 184 210 213 235 21 144 195 208 84 17 327 318 194 155 176 217 163 189 184 181 181
261 257 253 252 266 292 289 284 189 182 202 219 237 280 285 220 159 164 162 321 178 166 200 219 273 148 176 177 200 196 178 187 198 220 231 189 217 195 235 218 241 262 265 246 315 223 182 192 196 181 186 177 176 182
255 244 242 238 254 267 319 258 161 191 225 256 285 306 182 139 139 185 339 166 171 124 305 286 180 217 177 211 193 181 183 115 199 177 232 147 254 227 226 223 215 227 225 228 201 139 247 199 179 172 174 173 170 168
243 236 229 215 243 247 224 239 243 268 303 281 253 234 144 167 301 272 137 154 195 193 231 246 275 272 201 203 179 149 168 195 162 236 160 135 252 237 247 245 249 265 339 353 201 180 196 199 177 176 180 181 176 165
232 236 222 216 223 224 211 200 78 101 106 74 355 187 92 344 199 210 227 191 193 234 209 225 237 251 25 95 172 205 184 40 57 315 140 229 271 278 260 245 253 260 268 271 286 310 209 218 198 181 179 175 167 167
224 221 214 208 208 211 202 190 126 139 79 34 42 22 50 304 293 84 257 275 195 239 182 184 210 122 64 34 64 13 114 42 233 324 141 265 273 47 35 42 358 249 250 265 272 300 214 213 209 189 182 184 174 175
212 210 206 202 204 204 192 183 189 176 79 168 314 314 264 235 32 222 204 236 246 333 4 139 72 75 89 36 44 42 88 233 326 42 220 13 355 38 37 32 40 51 111 234 230 227 214 195 195 196 178 179 173 177
206 203 198 194 193 185 173 182 179 152 138 335 312 320 168 246 251 220 259 214 8 78 103 105 85 88 66 50 19 82 257 93 10 244 97 304 9 18 20 24 28 27 34 155 200 193 202 205 202 184 180 179 175 175
190 190 188 186 184 179 169 170 165 158 59 316 309 265 229 260 310 285 3 43 135 188 150 99 64 90 43 56 330 14 314 232 212 160 147 350 2 2 1 358 0 14 15 22 209 209 202 204 192 180 183 184 179 171
175 177 186 178 175 174 181 183 170 148 303 273 251 284 321 45 39 22 134 195 181 108 99 69 80 49 336 177 131 221 241 239 167 199 328 354 356 351 345 337 334 344 349 352 13 223 222 192 185 175 159 158 154 166
159 160 175 173 168 167 157 144 139 204 297 275 264 299 270 269 272 304 300 47 154 132 130 111 89 208 245 353 243 206 215 192 271 309 310 313 324 311 305 304 308 312 321 328 334 13 196 188 181 160 151 150 161 167
156 147 152 164 165 163 157 152 168 253 262 259 266 287 314 327 316 320 292 150 139 142 156 191 147 110 194 220 254 291 340 312 306 305 306 308 308 301 300 302 294 286 294 296 325 198 193 183 173 163 164 179 193 176
131 141 146 157 158 136 161 192 213 266 257 265 282 279 308 294 290 265 143 147 132 142 135 94 76 214 241 251 291 313 306 302 299 297 298 297 294 289 296 302 290 271 283 282 291 227 208 197 202 186 176 180 178 168
128 130 144 154 162 158 195 197 211 264 285 312 293 301 301 269 287 232 229 199 195 123 79 95 225 268 293 291 288 286 284 285 280 279 278 281 280 290 295 282 274 266 269 260 231 218 212 194 203 186 176 180 172 169
126 138 146 163 188 309 275 214 226 254 283 283 307 321 287 274 240 205 198 197 163 74 258 255 277 293 301 303 294 288 284 279 266 260 263 268 274 275 278 273 264 249 242 228 175 181 202 203 190 178 176 178 175 175
136 136 136 128 338 301 277 269 277 303 283 292 299 250 310 19 65 96 124 78 78 43 331 318 317 316 319 312 304 291 294 292 275 263 258 259 261 261 260 257 232 209 224 202 173 160 164 161 165 169 167 166 168 163
134 127 57 220 255 272 306 310 328 314 252 315 331 46 360 6 10 22 64 56 70 348 341 330 326 325 327 323 304 305 306 291 272 255 244 239 241 242 224 206 195 183 157 160 167 161 152 163 161 159 155 153 154 153
131 113 47 358 306 276 317 298 311 318 326 331 54 27 352 296 45 43 43 49 354 341 345 351 345 341 342 341 339 359 31 74 97 131 159 180 189 184 175 154 143 156 161 158 147 149 152 153 153 150 147 148 151 154
183 63 9 324 253 296 284 321 322 22 346 102 166 204 224 163 65 35 15 360 352 342 349 356 349 344 327 337 49 69 88 92 101 112 120 126 125 124 129 124 120 123 141 138 146 151 147 148 145 148 150 150 152 156
186 191 152 269 283 138 298 316 269 292 0 2 313 359 226 104 63 20 12 356 343 335 353 351 343 344 8 22 92 80 79 88 87 82 97 116 118 117 116 120 123 128 136 142 145 150 149 148 151 150 148 147 144 142
222 159 188 198 297 326 327 286 296 77 38 340 306 342 25 73 53 21 347 336 339 357 360 1 359 359 10 47 101 91 85 88 83 88 102 108 108 116 121 122 125 133 138 142 140 141 144 146 148 147 144 143 137 132
242 146 155 169 188 216 289 268 39 30 5 353 8 36 62 27 19 320 313 353 12 13 13 35 39 55 83 80 94 88 86 88 96 98 94 97 103 102 106 114 124 132 136 137 137 139 142 147 154 161 154 148 131 125
202 169 137 171 194 204 26 50 28 28 3 17 68 79 91 81 20 5 22 43 40 20 27 45 64 76 82 104 91 75 76 85 90 92 89 84 83 98 101 111 124 135 135 147 153 152 161 164 163 164 162 154 146 135
162 155 159 155 67 50 32 86 81 51 62 117 113 114 97 87 54 47 69 73 58 44 47 48 59 75 85 87 84 83 84 87 89 91 91 86 88 98 103 108 111 107 116 122 142 152 155 153 164 168 164 161 156 151
135 107 78 88 83 104 105 107 96 81 77 79 86 97 117 118 57 66 78 76 65 84 76 68 71 66 72 80 81 85 82 85 91 96 98 95 94 95 99 98 96 101 113 120 122 136 149 152 158 168 172 164 161 163
98 108 117 98 110 134 132 117 101 100 93 87 91 93 74 92 75 53 97 104 99 105 83 82 76 63 59 64 77 80 83 89 95 95 89 88 88 92 98 102 109 111 114 124 126 114 125 149 161 161 165 166 166 169
121 118 115 113 138 168 171 143 114 123 98 68 75 83 79 87 84 27 47 149 143 110 109 92 81 76 69 65 68 77 87 91 93 96 96 95 86 81 86 105 104 113 111 105 100 108 119 126 135 147 158 159 160 174